Location: Newark
(49.8348°N, 24.0280°E)
Time: 02:43:11
(UTC+00:00)

Transit 2A - Pass Details

Date: 23 January 2020
Orbit: 600 x 959 km, 66.7° (Epoch: 19 February)

Event Time Altitude Azimuth Distance (km) Brightness Sun altitude
Rises 20:44:13 0° 259° (W) 2,860 - -52.4°
Reaches altitude 10° 20:46:56 10° 276° (W) 1,947 - -52.7°
Maximum altitude 20:50:15 21° 326° (NNW) 1,371 - -53.0°
Drops below altitude 10° 20:53:38 10° 17° (NNE) 1,976 - -53.4°
Sets 20:56:25 0° 33° (NNE) 2,915 - -53.7°
